sat.trackr.live / text

‹ back to catalog

STARLINK-4296

NORAD 52995 · 2022-076K

PAYLOAD ACTIVE UNKNOWN

§ Identity

Operator
Country
US
Launch date
2022-07-07
Launch site
AFETR
Launch vehicle
Mass (kg)
RCS (m²)

Purposes: comms

External: N2YO · Heavens-Above · Gunter

§ Orbital elements

Epoch: 2026-05-25T04:48:30.741120Z

Period
95.44 min
Inclination
53.2138°
Eccentricity
0.0001801
Mean motion
15.08839805 rev/d
Perigee alt
538.5 km
Apogee alt
541.0 km
Semi-major
6,917.9 km
B*
7.2729e-6
RAAN
110.6476°
Arg perigee
63.0487°
Mean anomaly
297.0689°
Rev number
21,439

§ Raw data

STARLINK-42961 52995U 22076K   26145.20035580 -.00000172  00000+0  72729-5 0  99902 52995  53.2138 110.6476 0001801  63.0487 297.0689 15.08839805214394

JSON: /api/v1/satellites/52995 · /tle

For live sub-satellite position, see the globe view (requires WebGL).

§ Visibility from observer

Set your observer location to see the next 7 days of passes ≥ 10°. The values pass through the URL so the page stays shareable.

No JS? Fill the form by hand. The geolocation button needs JavaScript.